Home > Weather > Tyler > Past weeks

Flag for U.S.A. Weather for the Past 2 Weeks in Tyler, Texas, U.S.A.

Now
57 °F

Mostly cloudy.


Feels Like: 54 °F
Forecast: 55 / 71 °F
Wind: 12 mph from South

Location: Tyler Pounds Field

Current Time: Feb 14, 2016 at 7:17:22 AM

Latest Report: Feb 14, 2016 at 5:53 AM


Visibility: 10 mi

Pressure: 30.03 "Hg

Humidity: 81%

Dew point: 51 °F

Location of TylerLocation

Historic Weather in Tyler — Graph

°F

Tyler Temperature Yesterday

Maximum temperature yesterday: 64 °F (at 2:53 PM)
Minimum temperature yesterday: 44 °F (at 4:53 AM)
Average temperature yesterday: 54 °F

High & Low Weather Summary for the Past Weeks

 TemperatureHumidityPressure
High78 °F (Jan 31, 2:53 PM)92% (Feb 7, 2:53 AM)30.50 "Hg (Feb 7, 2:53 AM)
Low30 °F (Feb 4, 4:53 AM)15% (Feb 8, 3:53 PM)29.54 "Hg (Feb 1, 11:53 PM)
Average53 °F49%30.12 "Hg
* Reported Jan 30 5:53 AM — Feb 14 5:53 AM, Tyler, Weather by CustomWeather, © 2016

Note: Actual official high and low records may vary slightly from our data, if they occured in-between our weather recording intervals... More about our weather records

Advertising

Tyler Weather History for the Previous 24 Hours

 ConditionsComfort  
Time TempWeatherWind HumidityBarometerVisibility
5:53 AM
Sun, Feb 14
57 °FMostly cloudy.12 mph81%30.03 "Hg10 mi
4:53 AM57 °FOvercast.9 mph78%30.03 "Hg10 mi
3:53 AM56 °FOvercast.12 mph77%30.04 "Hg10 mi
2:53 AM56 °FOvercast.12 mph67%30.05 "Hg10 mi
1:53 AM55 °FOvercast.12 mph62%30.07 "Hg10 mi
12:53 AM55 °FOvercast.10 mph57%30.11 "Hg10 mi
11:53 PM
Sat, Feb 13
55 °FOvercast.12 mph55%30.15 "Hg10 mi
10:53 PM54 °FPassing clouds.12 mph53%30.16 "Hg10 mi
9:53 PM54 °FPassing clouds.13 mph53%30.18 "Hg10 mi
8:53 PM56 °FPassing clouds.14 mph49%30.18 "Hg10 mi
7:53 PM57 °FClear.14 mph47%30.20 "Hg10 mi
6:53 PM58 °FClear.12 mph46%30.21 "Hg10 mi
5:53 PM61 °FPassing clouds.12 mph41%30.22 "Hg10 mi
4:53 PM63 °FPassing clouds.12 mph37%30.23 "Hg10 mi
3:53 PM64 °FBroken clouds.12 mph35%30.25 "Hg10 mi
2:53 PM64 °FSunny.14 mph34%30.27 "Hg10 mi
1:53 PM62 °FSunny.9 mph35%30.31 "Hg10 mi
12:53 PM59 °FSunny.10 mph38%30.34 "Hg10 mi
11:53 AM57 °FSunny.12 mph39%30.39 "Hg10 mi
10:53 AM54 °FSunny.13 mph43%30.42 "Hg10 mi
9:53 AM52 °FSunny.17 mph45%30.42 "Hg10 mi
8:53 AM48 °FSunny.16 mph54%30.42 "Hg10 mi
7:53 AM46 °FSunny.9 mph61%30.41 "Hg10 mi
Weather by CustomWeather, © 2016

See weather overviewHow to use our weather pages